Location: Bismarck
(46.7731°N, 100.8200°W)
Time: 17:25:57
(UTC-06:00)

Landsat 7 - Visible Passes

Search period start: 01 March 2015 00:00
Search period end: 11 March 2015 01:00
Orbit: 701 x 703 km, 98.2° (Epoch: 01 March)

Date Brightness Start Highest point End Pass type
(mag) Time Alt. Az. Time Alt. Az. Time Alt. Az.
01 Mar 6.4 21:51:54 13° N 21:51:54 13° N 21:52:29 10° N visible
02 Mar 6.2 20:56:11 11° NNE 20:56:11 11° NNE 20:56:24 10° NNE visible
02 Mar 6.7 22:35:04 12° NNW 22:35:04 12° NNW 22:35:24 10° NNW visible
03 Mar 6.2 21:39:20 14° N 21:39:20 14° N 21:40:08 10° N visible
04 Mar 6.5 22:22:29 14° NNW 22:22:29 14° NNW 22:23:11 10° NNW visible
05 Mar 6.1 21:26:45 15° NNE 21:26:45 15° NNE 21:27:44 10° N visible
05 Mar 6.9 23:05:38 10° NNW 23:05:38 10° NNW 23:05:42 10° NNW visible
06 Mar 6.2 22:09:54 17° N 22:09:54 17° N 22:10:57 10° N visible
07 Mar 6.0 21:14:11 15° NNE 21:14:11 15° NNE 21:15:16 10° NNE visible
07 Mar 6.7 22:53:03 13° NNW 22:53:03 13° NNW 22:53:38 10° NNW visible
08 Mar 6.0 22:57:19 19° N 22:57:19 19° N 22:58:40 10° N visible
09 Mar 6.0 22:01:36 14° NNE 22:01:36 14° NNE 22:02:43 10° NNE visible
09 Mar 6.4 23:40:28 16° NNW 23:40:28 16° NNW 23:41:29 10° NNW visible
10 Mar 5.8 22:44:44 20° N 22:44:44 20° N 22:46:20 10° N visible
11 Mar 6.9 00:23:37 10° NW 00:23:37 10° NW 00:23:41 10° NW visible
